TimeCDT,TemperatureF,Dew PointF,Humidity,Sea Level PressureIn,VisibilityMPH,Wind Direction,Wind SpeedMPH,Gust SpeedMPH,PrecipitationIn,Events,Conditions,WindDirDegrees,DateUTC
12:51 AM,84.9,66.9,55,29.97,10.0,SSE,10.4,-,N/A,,Mostly Cloudy,160,2013-08-01 05:51:00
1:51 AM,82.9,70.0,65,29.96,10.0,South,10.4,-,N/A,,Scattered Clouds,180,2013-08-01 06:51:00
2:51 AM,81.0,72.0,74,29.96,10.0,South,6.9,-,N/A,,Scattered Clouds,180,2013-08-01 07:51:00
3:51 AM,80.1,71.1,74,29.97,10.0,South,5.8,-,N/A,,Scattered Clouds,190,2013-08-01 08:51:00
4:51 AM,79.0,71.1,77,29.97,10.0,SSW,3.5,-,N/A,,Scattered Clouds,210,2013-08-01 09:51:00
5:51 AM,78.1,72.0,81,29.98,10.0,WSW,4.6,-,N/A,,Scattered Clouds,240,2013-08-01 10:51:00
6:51 AM,78.1,73.0,84,29.99,10.0,SW,4.6,-,N/A,,Mostly Cloudy,230,2013-08-01 11:51:00
7:51 AM,80.1,73.9,81,30.00,10.0,SSW,5.8,-,N/A,,Mostly Cloudy,210,2013-08-01 12:51:00
8:51 AM,82.0,73.0,74,30.00,10.0,SW,5.8,-,N/A,,Mostly Cloudy,230,2013-08-01 13:51:00
9:51 AM,86.0,73.0,65,30.00,10.0,WSW,5.8,-,N/A,,Mostly Cloudy,240,2013-08-01 14:51:00
10:51 AM,89.1,71.1,55,30.00,10.0,Variable,4.6,-,N/A,,Mostly Cloudy,0,2013-08-01 15:51:00
11:51 AM,91.9,69.1,47,29.99,10.0,Variable,4.6,-,N/A,,Scattered Clouds,0,2013-08-01 16:51:00
12:51 PM,95.0,66.0,38,29.97,10.0,Calm,Calm,-,N/A,,Scattered Clouds,0,2013-08-01 17:51:00
1:51 PM,99.0,66.0,34,29.95,10.0,ESE,4.6,-,N/A,,Scattered Clouds,110,2013-08-01 18:51:00
2:51 PM,100.0,64.0,31,29.93,10.0,SE,6.9,16.1,N/A,,Scattered Clouds,130,2013-08-01 19:51:00
3:51 PM,102.0,64.0,29,29.91,10.0,ENE,8.1,-,N/A,,Mostly Cloudy,60,2013-08-01 20:51:00
4:51 PM,102.0,64.0,29,29.88,10.0,SE,8.1,17.3,N/A,,Mostly Cloudy,140,2013-08-01 21:51:00
5:51 PM,102.0,63.0,28,29.86,10.0,ENE,9.2,-,N/A,,Scattered Clouds,70,2013-08-01 22:51:00
6:51 PM,100.9,64.0,30,29.85,10.0,East,10.4,-,N/A,,Scattered Clouds,90,2013-08-01 23:51:00
7:51 PM,98.1,63.0,31,29.86,10.0,SE,11.5,-,N/A,,Scattered Clouds,140,2013-08-02 00:51:00
8:51 PM,93.9,63.0,36,29.86,10.0,SE,8.1,-,N/A,,Scattered Clouds,130,2013-08-02 01:51:00
9:51 PM,93.0,63.0,37,29.89,10.0,SSE,11.5,-,N/A,,Scattered Clouds,150,2013-08-02 02:51:00
10:51 PM,91.0,64.0,41,29.90,10.0,SSE,12.7,-,N/A,,Scattered Clouds,160,2013-08-02 03:51:00
11:51 PM,88.0,66.9,49,29.92,10.0,SSE,10.4,-,N/A,,Scattered Clouds,160,2013-08-02 04:51:00